Location: Miramar
(32.8937°N, 117.1184°W)
Time: 14:33:29
(UTC+00:00)

Daily predictions for brighter satellites

Satellite Brightness Start Highest point End
(mag) Time Altitude Azimuth Time Altitude Azimuth Time Altitude Azimuth
ARGOS Delta rocket 4.2 12:05:34 10° NNE 12:10:39 66° E 12:15:25 10° S
NOSS 3-4 (A) 3.5 12:11:28 34° SSW 12:14:04 71° ESE 12:20:05 10° NE
NOSS 3-4 (C) 3.5 12:11:25 32° SSW 12:14:11 70° ESE 12:20:12 10° NE
GPS 2-04 Rocket1 3.8 12:21:20 42° E 12:21:20 42° E 12:24:02 10° E
Cosmos 1606 3.4 12:29:46 42° NE 12:30:34 50° E 12:34:14 10° SSE
Cosmos 2263 Rocket 2.0 12:29:12 44° SW 12:31:01 71° WNW 12:36:42 10° NNE
Cosmos 1386 Rocket 4.5 12:26:10 10° SSW 12:32:27 59° W 12:38:45 10° N
ATLAS 2AS CENTAUR R/B 3.1 12:25:29 10° SSW 12:33:19 79° ESE 12:41:17 10° NNE
CENTAUR R/B 3.9 12:27:26 12° NNW 12:35:01 51° NE 12:43:35 10° SE
USA 234 3.5 12:31:16 10° NE 12:37:47 70° SE 12:44:18 10° SW
deb Chang Zheng 4 3.5 12:35:23 10° NNE 12:39:44 85° ESE 12:44:04 10° SSW
H-2A R/B 4.1 12:35:57 10° SSW 12:36:43 15° SSW 12:36:43 15° SSW
FALCON 9 DEB 3.8 12:41:02 47° SE 12:41:02 47° SE 12:44:03 10° NE
Delta 2 Rocket 3.5 12:42:32 60° WNW 12:43:23 82° NNE 12:47:49 10° ESE
Meteor 1-31 Rocket 2.8 12:41:10 10° N 12:45:38 59° SW 12:48:48 10° SSW
Cosmos 773 Rocket 3.9 12:44:17 29° NNW 12:47:02 79° WSW 12:52:16 10° S
NOSS 3-2 (A) 4.1 12:43:27 19° NNW 12:49:40 90° SW 12:58:23 10° SSE
Nadezhda 1 Rocket 4.1 12:45:40 10° NNW 12:51:48 53° W 12:57:50 10° SSW
Lacrosse 5 1.7 12:49:39 22° SW 12:52:55 80° NW 12:58:00 10° NE
Cosmos 1603 4.1 12:51:07 10° NNW 12:56:41 62° ENE 13:02:14 10° SSE
ALOS 3.7 12:52:32 10° N 13:00:21 14° SW 13:01:06 10° SW
Lacrosse 4 Rocket 3.8 12:56:54 10° N 13:00:15 21° ENE 13:03:37 10° ESE
FENGYUN 3A 4.1 12:56:43 10° N 13:01:40 37° WNW 13:06:34 10° SW
CZ-4B R/B 1.3 13:01:23 10° S 13:04:30 51° W 13:04:31 51° W
USA 238 DEB 3.9 12:58:32 15° NNW 13:04:49 83° WSW 13:12:25 10° SSE
USA 238 3.9 12:58:36 15° NNW 13:04:54 83° WSW 13:12:31 10° SSE
Cosmos 1943 3.5 13:01:19 10° NNW 13:07:00 67° ENE 13:12:38 10° SSE
Cosmos 990 Rocket 4.5 13:03:42 10° S 13:08:50 64° ESE 13:14:02 10° NNE
FALCON 9 DEB 2.7 13:08:39 34° SW 13:09:52 77° NW 13:13:05 10° NE
Cosmos 1461 4.2 13:05:37 10° NNW 13:10:04 43° ENE 13:14:19 10° SE
Cosmos 1151 Rocket 3.3 13:06:07 10° N 13:10:22 70° E 13:14:38 10° SSE
Cosmos 489 Rocket 4.4 13:04:54 10° NNW 13:11:12 74° WSW 13:17:30 10° S
Cosmos 1633 2.6 13:08:19 10° SSW 13:11:43 46° W 13:15:07 10° N
FALCON 9 DEB 2.8 13:11:55 34° WSW 13:13:04 63° NW 13:16:15 10° NE
OAO 2 Rocket 3.3 13:11:59 24° W 13:15:05 83° NNW 13:20:16 10° ENE
CZ-4B R/B 3.1 13:11:25 10° N 13:15:52 63° WNW 13:20:11 10° SSW
ADEOS 4.3 13:11:38 10° N 13:16:06 30° WNW 13:20:33 10° SW
Milstar 3 Cent rocket 4.0 13:10:23 17° WSW 13:16:47 70° S 13:33:39 10° E
SAR-Lupe-4 3.4 13:13:23 10° S 13:16:56 75° W 13:20:30 10° NNW
Cosmos 1328 Rocket 3.7 13:14:31 10° N 13:18:57 77° E 13:23:22 10° S
Atlas Centaur 2 2.7 13:13:27 12° WSW 13:18:58 51° SSE 13:23:38 10° E
Okean 3 Rocket 4.1 13:18:40 10° SSW 13:22:40 35° W 13:26:43 10° NNW
SJ 16-02 1.8 13:21:11 10° SW 13:25:17 38° WNW 13:29:25 10° N
Cosmos 1766 Rocket 4.1 13:22:33 10° SW 13:26:38 35° W 13:30:46 10° NNW
PSLV R/B 3.9 13:23:15 10° SSE 13:27:25 86° WSW 13:31:35 10° NNW
YAOGAN 6 3.7 13:24:55 10° NNE 13:28:17 46° E 13:31:37 10° S
Meteor 2-17 Rocket 4.4 13:22:30 10° SSW 13:28:30 66° W 13:34:31 10° N
MOS 1 Rocket 4.3 13:25:00 10° SSE 13:29:23 49° ENE 13:34:05 10° N
Cosmos 1184 Rocket 3.7 13:28:08 10° SW 13:30:59 27° WNW 13:33:52 10° NNW
Cosmos 1743 Rocket 4.2 13:26:54 10° S 13:31:14 61° E 13:35:37 10° NNE
FALCON 9 DEB 3.4 13:29:47 17° WSW 13:31:55 40° NW 13:34:58 10° NNE
COSMO-SKYMED 1 2.7 13:27:55 10° S 13:32:08 53° W 13:36:23 10° NNW
H-2A R/B 2.7 13:29:25 10° N 13:33:19 73° WNW 13:37:09 10° SSW
CZ-4C R/B 1.9 13:29:22 10° SW 13:33:57 60° WNW 13:39:20 10° NNE
SAR-Lupe-1 4.4 13:30:39 10° S 13:34:03 44° W 13:37:29 10° NNW
USA 276 3.9 13:33:43 16° WSW 13:34:50 18° SW 13:37:05 10° S
OAO 1 Rocket 4.4 13:30:24 14° W 13:34:56 78° N 13:40:14 10° ENE
ERS-2 3.5 13:33:02 10° SSW 13:35:47 20° W 13:37:27 15° WNW
Cosmos 1408 Rocket 3.7 13:31:50 10° SSW 13:36:11 53° W 13:40:34 10° N
Cosmos 1538 Rocket 4.4 13:32:27 10° NNW 13:37:28 44° W 13:42:25 10° S
ASTRO E2 2.9 13:35:42 15° W 13:38:57 64° S 13:42:52 10° ESE
Cosmos 1862 3.7 13:38:25 10° S 13:42:24 68° E 13:46:27 10° NNE
Cosmos 158 Rocket 3.9 13:41:42 10° NNW 13:46:38 85° ENE 13:51:38 10° SSE
NOSS 7 (H) 4.4 13:42:41 10° SW 13:46:43 64° WNW 13:49:52 10° NNE
OAO 3 Rocket 3.5 13:42:38 12° W 13:46:47 54° SSW 13:51:25 10° SE
Cosmos 2181 Rocket 4.1 13:41:12 10° NNW 13:47:10 51° W 13:53:02 10° SSW
BREEZE M DEB (TANK) 3.5 13:35:55 10° WSW 13:48:18 57° NW 13:51:51 10° NE
Cosmos 1844 Rocket 2.7 13:45:28 10° SSW 13:51:04 75° WNW 13:56:45 10° NNE
SMAP 3.9 13:47:01 10° NNE 13:51:36 57° E 13:56:09 10° S
ATLAS 3B R/B 3.9 13:45:07 10° NNW 13:51:42 41° NE 13:58:29 10° ESE
Cosmos 1844 3.7 13:47:27 10° SSW 13:53:00 88° ESE 13:58:35 10° NNE
PAYLOAD B 4.4 13:47:33 10° NNE 13:53:05 83° ESE 13:58:35 10° SSW
Cosmos 2154 Rocket 4.2 13:46:57 10° S 13:53:09 82° E 13:59:23 10° N
Cosmos 1689 Rocket 3.2 13:50:55 10° SSW 13:53:18 24° W 13:55:43 10° NW
Cosmos 1898 Rocket 3.7 13:50:52 10° SW 13:55:59 50° WNW 14:01:09 10° N
CZ-4B DEB 4.2 13:51:18 10° N 13:56:45 74° WNW 14:02:11 10° SSW
GPS 2-04 Rocket1 2.7 13:55:58 10° W 13:59:46 58° N 14:03:25 10° ENE
ATLAS CENTAUR R/B 3.8 14:02:16 10° NNE 14:04:46 16° NE 14:07:19 10° E
